GFSMA_850_rhum_024.txt.gz
RH
69 72 76 75 73 72 69 66 56 53 48 44 48 50 48 39 28 37 49 54 53 51 65 69 84 95 94 90 81 76 79 85 75 72 68 62 61 56 45 44 42 35 23
81 81 77 72 66 66 59 48 41 41 45 50 52 54 49 32 34 31 32 30 38 40 48 70 86 97 98 96 95 90 96 95 93 91 92 96 84 73 53 47 40 37 35
86 74 64 65 70 61 37 38 39 42 45 50 56 42 35 42 36 36 35 34 36 38 43 74 88 87 88 82 90 90 91 91 89 84 82 94 98 96 85 54 33 28 27
85 76 74 72 59 36 37 40 43 44 43 39 24 35 43 46 47 50 51 47 45 45 64 79 80 79 73 59 60 70 75 75 77 77 85 88 88 86 87 90 84 82 54
81 77 67 46 37 40 42 42 35 24 18 20 28 36 44 52 57 59 57 51 44 45 45 45 47 45 40 39 42 65 67 70 70 73 84 79 76 81 81 79 82 87 88
77 57 38 39 40 41 38 31 23 18 17 23 25 29 47 60 58 59 55 51 52 48 44 43 45 40 40 38 39 41 65 69 70 70 70 74 79 79 75 76 76 76 82
58 39 42 41 43 37 31 22 14 10 10 12 22 41 51 56 61 58 57 55 51 55 44 42 44 42 28 34 40 44 65 66 66 67 67 70 68 71 74 75 76 78 80
41 43 46 45 39 34 26 16 10 8 8 12 24 41 61 54 61 61 59 64 62 56 49 53 43 29 30 43 44 41 45 62 63 63 64 64 66 67 71 75 76 76 77
46 49 49 43 38 29 20 12 10 11 9 18 31 43 61 65 67 68 68 67 64 59 60 42 32 31 37 31 30 32 33 34 46 66 65 65 65 68 73 76 78 77 80
51 52 53 42 37 31 16 10 20 35 14 25 48 53 60 76 76 71 62 56 60 56 57 51 39 41 40 41 39 40 41 34 35 58 77 75 75 77 79 77 79 82 83
55 56 54 39 36 25 12 47 74 60 23 32 47 46 44 50 54 61 63 62 64 64 66 62 53 57 59 50 52 54 51 48 43 46 59 75 88 85 84 83 85 81 81
55 56 51 39 36 17 27 68 67 14 18 38 41 46 50 53 59 66 72 72 74 71 70 68 65 69 68 62 64 64 64 62 61 61 63 66 86 89 86 84 79 79 81
58 56 47 35 18 40 62 59 29 23 28 25 49 58 58 60 62 70 75 80 82 77 75 76 77 71 68 65 60 59 51 51 56 57 57 60 71 74 78 82 86 88 87
60 56 47 62 45 58 66 60 35 14 36 55 68 66 67 67 68 73 74 84 80 80 85 83 74 68 67 58 51 41 33 29 29 30 32 35 40 71 93 94 92 92 91
60 56 50 47 48 60 78 20 35 41 54 62 58 60 68 66 69 70 74 78 88 91 88 83 79 68 65 51 41 33 31 33 37 40 43 46 51 94 94 96 99 95 94
60 45 43 43 50 50 26 44 38 36 55 59 66 54 58 60 67 71 72 71 73 80 86 65 61 64 56 49 42 31 31 44 50 55 58 58 73 96 95 94 93 92 92
63 51 39 46 45 36 40 29 67 48 55 64 56 44 47 60 63 67 69 72 70 72 64 60 59 56 55 50 37 29 33 44 56 60 59 60 58 74 52 56 57 98 99
50 40 45 45 46 37 46 74 42 48 52 51 60 58 53 58 65 70 72 52 51 58 68 62 56 60 53 43 34 35 40 48 53 50 42 42 42 50 56 51 43 74 66
46 45 49 49 47 67 87 46 46 50 52 56 65 69 64 67 73 71 62 55 58 70 66 64 64 60 50 41 38 41 44 48 45 53 60 64 72 68 61 58 57 50 50
48 55 54 59 65 92 84 57 54 54 56 60 63 70 70 72 77 82 58 65 69 70 66 69 67 60 51 42 46 54 46 48 41 58 64 67 65 61 59 66 63 54 51
50 61 60 67 98 96 79 59 60 63 62 62 63 69 73 77 88 86 71 72 72 72 67 70 68 60 50 48 60 63 60 48 52 62 74 54 55 61 70 62 63 65 56
58 63 70 98 86 98 82 60 59 59 58 63 65 68 72 78 88 81 77 74 72 71 66 75 66 66 49 63 68 66 59 65 100 73 81 48 58 65 69 79 70 66 56
65 76 99 95 99 91 81 59 51 55 50 53 64 70 74 83 89 78 79 67 60 64 67 73 67 58 61 71 77 74 79 78 83 65 86 64 57 61 65 69 69 92 96
81 94 94 99 98 90 63 48 50 50 50 55 63 74 79 83 87 77 68 61 50 59 68 71 62 56 70 76 87 90 89 77 64 62 78 80 64 57 54 64 65 85 99
96 95 99 99 98 72 46 36 34 37 42 54 67 74 77 85 78 73 56 56 52 52 62 60 53 64 77 84 85 88 84 78 66 57 69 90 78 71 58 61 69 91 75
99 100 100 98 77 41 32 30 34 42 50 67 73 76 79 86 76 64 52 54 55 48 57 49 59 70 74 76 79 86 88 83 81 76 73 89 88 92 98 74 79 75 80

GFSMA_850_rhum_030.txt.gz
RH
36 52 64 69 70 68 68 65 54 39 42 40 38 32 23 16 33 47 61 27 23 41 65 82 81 83 91 96 85 88 89 91 93 89 89 90 96 94 96 94 84 48 20
56 66 73 73 71 69 67 57 56 60 45 34 20 14 12 13 15 21 53 62 24 29 43 68 89 84 92 94 88 91 92 88 85 84 85 87 93 98 96 94 93 92 87
74 77 77 74 70 66 60 40 39 36 38 25 15 13 15 13 23 21 50 56 64 35 27 34 51 58 73 81 83 77 75 82 82 84 82 85 95 86 84 90 87 85 84
82 82 79 72 66 68 53 42 46 52 52 48 32 42 33 30 24 30 51 54 57 54 64 46 57 62 70 72 69 54 50 72 78 80 80 79 86 83 88 90 86 80 81
82 86 76 70 72 64 39 42 38 42 46 46 46 35 37 50 51 47 53 55 47 49 45 53 41 39 42 42 40 38 45 72 79 82 85 87 88 88 88 89 82 76 79
87 88 78 78 73 54 41 46 36 26 41 46 42 52 58 56 54 55 56 52 57 59 57 55 50 51 47 42 35 30 39 71 76 78 78 79 78 80 81 79 76 78 78
84 84 80 80 69 54 60 38 34 25 24 32 60 63 65 70 64 56 56 54 57 61 63 55 54 48 46 50 49 36 26 36 65 71 74 75 77 79 80 79 78 76 78
76 77 80 77 60 58 44 37 31 26 49 50 63 61 57 59 65 64 57 59 67 62 57 61 62 57 55 48 53 45 43 36 35 56 78 81 84 82 80 79 79 82 82
73 75 79 75 49 47 43 38 33 22 59 64 61 67 54 43 49 54 70 64 67 64 59 59 62 64 61 61 62 66 69 55 52 50 53 85 88 86 82 80 80 80 81
68 78 80 69 45 45 44 38 28 36 50 72 68 70 62 49 38 37 59 65 71 64 61 65 59 62 66 65 66 77 77 63 56 48 38 77 85 87 85 84 82 80 81
65 74 72 60 49 50 46 35 26 41 71 60 69 68 63 56 56 50 45 38 44 51 56 60 64 62 62 67 71 72 72 54 38 26 22 22 58 84 87 86 84 83 82
68 65 59 54 52 53 47 30 31 71 68 71 67 54 47 53 52 51 46 43 44 50 54 60 59 61 63 69 72 67 39 28 23 17 19 22 21 44 87 90 89 86 84
68 60 59 59 56 58 56 32 55 82 76 72 48 57 67 62 54 51 51 49 50 50 52 59 61 63 63 64 65 67 44 31 21 20 21 20 21 26 41 89 92 91 89
77 70 63 81 68 63 50 37 83 82 75 63 59 75 64 64 64 62 58 56 53 46 44 48 56 60 62 65 66 64 65 60 56 23 21 22 24 27 29 66 95 95 94
79 72 73 88 66 59 32 66 85 72 42 52 86 86 75 65 70 71 67 63 58 56 48 44 46 51 62 67 66 66 69 69 44 24 22 25 27 28 34 69 97 98 95
95 81 76 82 70 79 52 91 63 53 78 92 89 80 75 67 65 67 60 59 62 62 59 52 47 51 62 67 65 64 70 62 51 55 42 26 29 34 36 47 84 94 96
100 90 82 88 95 63 82 50 42 72 69 83 88 74 72 66 62 63 64 64 64 63 58 54 51 49 62 72 67 64 65 57 52 55 63 34 33 34 34 43 46 62 90
100 99 96 99 90 70 65 43 61 74 89 99 87 76 69 63 70 71 68 68 67 63 62 58 58 55 57 62 66 70 60 52 55 59 62 39 43 41 48 52 52 51 48
100 100 100 100 72 63 41 60 59 84 98 98 79 72 70 70 70 72 71 69 64 63 63 64 62 60 59 57 59 58 55 55 54 54 57 66 78 76 61 52 49 54 62
100 100 100 86 69 48 54 61 78 99 99 95 84 82 76 74 72 74 71 70 71 68 68 65 61 59 54 50 55 54 44 49 53 57 60 66 71 76 77 74 66 69 70
99 100 97 66 58 48 59 92 96 98 99 96 90 86 83 83 80 75 71 70 75 72 71 63 60 57 50 47 48 50 51 56 60 60 57 62 62 66 66 70 80 91 85
80 70 63 64 56 75 92 98 98 100 99 99 93 85 80 81 79 61 64 70 75 82 78 70 65 56 52 52 54 54 58 64 60 55 62 64 65 62 63 65 73 72 68
72 67 61 69 84 65 93 99 99 100 100 99 99 88 80 70 74 85 67 68 75 88 84 74 71 60 59 60 64 58 61 65 68 68 65 61 62 60 64 63 74 76 71
80 74 77 66 62 94 98 100 100 100 99 95 86 77 72 72 70 77 88 88 84 90 85 67 58 62 63 71 70 66 76 81 77 67 61 61 61 65 70 73 78 88 88
80 79 70 77 98 100 99 100 100 82 83 72 78 75 72 73 71 75 84 91 93 96 90 72 51 52 46 48 46 63 87 80 81 68 60 66 66 70 74 78 87 94 87
98 91 96 99 100 98 85 64 60 60 68 85 85 81 76 61 48 64 76 92 99 95 87 84 53 47 41 45 38 46 88 85 79 76 62 72 70 73 77 79 88 89 92

GFSMA_850_rhum_033.txt.gz
RH
80 77 76 77 74 76 72 73 55 62 52 53 52 52 48 48 43 42 57 39 18 36 66 84 86 84 93 93 86 82 84 92 93 88 88 88 94 95 97 95 96 92 74
82 80 74 77 74 72 72 67 62 60 54 56 49 39 28 41 31 30 50 58 32 26 46 87 82 80 93 92 84 86 82 85 88 87 88 87 90 89 91 90 92 89 88
77 84 79 76 74 72 71 64 47 56 56 50 47 45 47 43 48 50 47 55 58 46 28 37 54 65 73 78 80 82 81 82 82 84 85 85 84 89 89 91 92 90 85
72 75 79 79 77 78 73 63 62 59 55 48 47 45 48 48 53 51 52 51 52 57 58 46 33 44 55 59 72 70 58 50 62 81 87 93 96 95 99 96 96 94 85
85 84 81 83 77 76 69 65 63 57 54 47 48 50 54 52 56 46 52 56 51 44 46 48 49 41 37 34 35 35 35 38 49 82 85 86 84 86 87 90 91 87 79
86 84 82 85 70 76 71 66 64 53 50 48 40 45 60 60 57 56 57 54 52 58 57 57 55 54 50 46 44 36 32 34 63 74 77 80 84 84 86 85 86 82 78
86 80 84 84 74 74 68 72 63 49 51 46 58 59 61 66 63 60 58 54 52 57 60 60 59 50 47 48 50 56 50 40 39 63 82 85 90 89 88 88 85 84 83
84 70 87 82 77 72 72 65 52 54 51 58 60 62 63 62 66 62 57 56 58 62 57 58 60 61 58 52 53 54 59 59 55 50 52 63 90 91 89 86 83 80 79
84 90 85 86 84 73 76 51 42 46 51 62 61 70 59 50 48 54 64 61 59 67 66 58 59 62 63 63 62 62 70 71 66 55 49 44 82 85 88 87 84 82 80
72 91 90 91 85 80 70 62 55 55 45 61 75 74 74 69 50 42 53 62 68 69 67 65 62 62 62 64 63 67 69 73 69 58 30 26 27 62 80 87 87 85 82
89 94 92 92 90 83 68 59 54 45 36 70 70 76 71 64 61 57 50 45 57 53 51 54 60 64 63 60 64 68 69 68 54 37 23 16 16 28 79 84 87 87 84
79 92 89 88 87 80 65 66 58 35 45 75 79 78 62 52 52 54 54 49 44 43 45 52 59 59 59 60 63 64 65 62 52 34 19 15 17 16 25 76 87 88 85
72 74 84 87 87 84 68 70 66 69 77 86 90 78 56 64 63 53 49 48 48 47 47 49 55 57 57 58 62 62 64 63 58 46 25 19 15 15 18 41 88 91 89
78 92 64 96 91 82 76 89 72 77 74 96 82 72 74 71 63 59 58 56 56 49 45 43 44 47 55 56 59 60 63 66 64 59 39 31 22 18 20 24 46 92 93
64 77 92 95 86 76 84 88 85 62 89 90 83 88 87 77 65 66 68 63 56 54 50 44 42 43 47 53 58 61 68 69 64 58 49 42 33 30 25 24 27 74 96
87 86 93 87 77 73 82 92 90 74 89 86 87 74 89 81 72 65 63 57 56 57 54 50 47 47 50 50 55 58 68 65 66 59 52 48 53 52 34 26 31 63 97
94 100 97 93 85 78 86 96 84 86 78 86 82 93 96 85 74 63 60 60 58 56 55 52 49 49 51 54 55 64 67 64 61 48 47 51 55 51 40 39 39 44 56
100 99 99 99 98 86 97 97 84 90 81 94 72 100 100 79 69 67 66 63 64 65 63 59 55 53 54 54 56 61 62 61 54 49 54 47 49 54 58 62 63 49 43
100 100 100 100 99 99 99 86 88 74 86 80 99 98 89 77 74 68 68 74 74 71 63 62 64 55 55 54 54 54 54 52 54 42 43 46 52 60 62 63 67 67 52
100 100 100 100 100 100 85 82 73 89 91 96 98 100 93 84 78 78 77 79 78 78 76 72 67 59 53 51 53 50 50 46 44 45 52 56 53 58 59 61 64 71 73
100 99 99 100 100 89 83 77 88 97 89 99 98 98 94 91 92 85 81 76 76 77 75 74 69 62 51 50 49 46 47 50 48 53 55 54 57 58 58 57 60 74 91
96 93 94 99 91 77 69 89 82 94 96 99 99 98 99 98 91 81 78 75 77 79 73 77 76 69 56 54 53 50 52 54 50 54 58 64 60 57 55 55 58 76 74
76 73 72 69 66 65 80 74 88 93 99 99 99 99 97 90 80 71 67 66 68 71 70 75 84 83 74 63 58 58 59 57 52 58 69 64 57 56 56 55 64 74 74
79 75 72 70 86 97 99 94 93 100 99 98 98 96 84 76 73 69 67 68 69 76 79 70 79 79 87 74 61 62 66 63 68 71 66 61 56 58 63 65 68 72 76
100 100 100 99 89 78 88 100 100 100 98 98 91 83 79 78 76 73 73 74 75 76 78 84 82 88 89 69 43 61 66 65 71 67 63 61 58 61 63 65 68 86 95
98 91 87 89 89 94 90 98 78 70 72 92 96 91 88 88 87 87 88 84 78 78 85 95 88 98 86 77 52 48 55 70 77 75 67 68 66 64 65 67 74 71 74

GFSMA_850_rhum_036.txt.gz
RH
43 54 69 68 70 70 73 73 56 42 45 32 28 32 28 21 40 42 48 45 17 51 74 83 88 95 91 83 79 75 87 91 88 90 92 92 92 93 94 92 94 93 93
56 69 83 80 76 74 74 70 65 54 56 44 28 27 38 43 32 52 49 53 43 23 69 80 84 87 93 85 81 79 77 77 71 67 66 83 86 92 94 96 95 96 96
73 80 77 76 75 72 72 66 61 59 52 51 44 38 45 45 45 39 54 51 53 53 33 49 55 56 61 70 73 73 75 74 66 54 66 85 84 90 87 85 90 90 92
72 76 80 78 76 73 73 66 56 57 56 51 46 47 46 48 50 50 49 56 64 58 54 51 40 34 35 49 53 49 55 46 45 50 58 60 65 76 79 81 88 94 93
84 76 81 80 78 76 73 66 63 60 57 50 48 50 48 52 53 51 48 47 53 49 62 50 49 48 43 42 38 34 32 31 36 38 36 48 76 84 91 92 92 90 88
95 81 81 80 82 78 75 68 63 60 54 51 48 39 44 54 58 55 55 56 52 46 47 58 59 54 52 49 46 46 41 32 29 32 56 78 89 87 77 84 90 91 89
91 84 87 83 80 76 76 71 64 62 47 50 46 49 60 62 62 61 58 56 52 53 53 52 52 56 55 53 54 52 53 51 50 44 45 56 78 83 89 88 89 88 86
86 83 81 86 72 75 75 68 66 58 49 48 47 62 64 67 66 58 54 56 52 54 56 58 57 55 53 55 57 58 61 62 65 58 58 49 42 89 86 89 90 87 88
85 87 77 87 82 74 76 70 66 56 55 54 51 63 66 63 63 57 59 55 56 51 50 55 58 58 60 62 62 64 67 71 67 69 65 43 29 36 82 82 85 91 90
93 84 94 88 88 85 76 73 74 60 52 56 65 75 72 72 67 54 62 59 56 55 56 53 57 61 59 63 64 65 65 68 70 70 64 48 28 23 35 70 85 92 90
87 75 96 92 92 90 82 76 74 73 59 56 70 74 80 83 72 63 57 54 64 62 55 56 58 61 65 63 61 62 66 66 68 64 57 40 27 14 21 50 85 88 90
76 92 91 94 92 90 88 84 83 80 69 57 66 81 86 86 67 59 60 59 55 52 52 50 52 57 59 59 61 63 63 62 60 61 55 37 24 19 16 18 48 88 91
78 81 74 79 78 88 88 76 98 82 76 66 63 81 87 80 60 59 62 55 49 48 47 47 49 50 52 57 58 60 62 62 61 58 46 45 33 23 18 16 20 54 90
62 52 67 85 89 64 77 88 96 84 80 78 89 96 92 82 68 71 62 58 58 56 55 52 47 44 48 55 56 57 58 57 58 52 54 52 44 35 28 27 24 53 88
77 77 76 79 80 81 87 93 94 81 87 93 92 91 84 75 75 89 64 65 66 65 59 54 50 45 45 46 47 50 53 53 54 53 53 58 52 43 42 45 41 51 73
76 92 86 88 90 96 99 95 91 84 96 94 89 94 86 82 97 86 72 68 65 61 60 60 56 51 48 48 49 50 53 54 60 64 64 57 48 47 47 46 47 50 51
92 97 96 92 98 100 95 91 85 89 100 92 98 98 96 89 98 90 81 67 61 61 58 56 57 55 52 51 52 55 55 55 60 63 54 55 51 45 45 49 52 58 62
100 100 99 99 97 99 98 91 88 98 93 99 100 100 94 92 90 88 82 80 63 60 63 62 63 63 59 55 54 53 54 54 56 54 57 48 43 44 49 53 57 59 62
99 99 100 99 98 100 100 99 95 100 98 100 99 95 97 98 95 91 88 75 70 71 71 74 76 71 67 63 58 57 54 53 51 49 48 41 43 49 53 56 59 58 60
100 100 100 100 100 100 99 99 100 96 97 95 92 99 98 98 97 91 94 93 90 87 89 88 86 76 75 73 64 57 52 52 49 49 48 46 46 56 56 57 55 59 59
99 99 100 100 100 100 100 100 98 94 87 94 97 96 99 100 99 96 96 91 90 98 98 94 92 86 86 80 69 57 52 51 47 48 49 50 54 57 59 56 57 56 58
100 96 94 94 99 98 96 90 86 84 89 96 98 89 96 98 96 84 88 90 84 81 78 77 75 87 87 86 82 63 57 55 51 52 54 50 57 57 58 58 58 59 63
90 78 78 79 87 88 81 76 76 81 81 92 95 97 98 88 84 89 90 83 77 73 72 72 72 75 76 76 88 90 69 59 57 55 58 54 53 56 64 58 60 61 59
79 76 73 71 71 71 79 91 97 92 97 99 98 91 91 93 90 84 82 80 76 74 72 74 79 78 86 84 77 97 91 75 68 59 60 52 50 68 62 58 62 65 70
82 95 96 95 99 99 94 89 97 100 99 100 91 86 85 83 88 88 88 89 87 83 83 89 80 76 86 91 86 92 97 92 67 49 49 51 58 67 66 62 62 62 78
98 98 98 95 92 93 95 99 94 95 83 64 48 46 40 39 38 50 69 86 92 81 89 88 97 91 75 95 93 87 93 94 55 50 45 49 62 72 72 63 65 70 70

GFSMA_850_rhum_042.txt.gz
RH
42 44 41 55 63 63 58 47 52 51 39 31 24 24 29 30 36 39 45 46 41 34 86 89 99 98 97 84 52 49 55 61 57 58 51 51 74 69 82 95 97 96 93
45 42 49 54 63 64 64 60 51 45 39 30 31 26 29 34 36 40 43 44 44 33 58 85 92 99 96 67 46 48 53 54 52 49 43 39 33 31 32 46 83 93 92
50 51 58 56 63 68 71 72 62 48 41 41 36 33 38 43 46 49 50 46 46 46 42 50 76 67 58 52 41 48 54 51 36 37 37 36 38 27 24 24 25 29 44
53 59 56 73 71 75 76 73 62 54 48 46 44 42 41 43 47 52 55 52 47 45 50 48 45 47 47 42 41 40 38 37 35 33 32 30 28 25 22 20 20 17 17
70 57 63 72 81 78 75 73 72 63 59 51 47 45 45 44 44 54 57 57 51 47 50 49 46 44 44 46 46 45 46 41 37 32 31 29 33 22 18 16 15 15 20
58 56 60 62 74 76 76 75 74 69 66 53 54 51 48 47 43 51 60 60 58 54 47 47 46 45 46 50 50 49 48 45 43 41 42 44 37 33 19 13 14 17 53
61 64 61 56 69 77 76 75 75 75 67 59 59 54 50 50 43 52 59 61 61 59 54 50 49 49 49 52 52 50 51 51 48 51 50 52 53 46 33 21 19 31 90
65 78 76 63 73 79 79 77 78 76 67 64 58 55 51 49 46 57 59 61 64 62 57 55 52 52 53 56 54 55 54 51 54 50 48 55 55 48 37 29 22 24 61
70 80 78 72 76 75 79 80 81 78 72 67 63 57 54 55 60 61 63 63 64 63 59 56 55 54 55 57 55 57 54 52 54 49 48 52 52 49 47 33 24 17 59
68 67 75 77 74 80 79 84 86 81 77 73 67 66 54 53 60 65 63 67 67 66 64 59 57 57 57 58 52 54 55 56 57 53 52 51 52 52 48 34 24 19 54
52 74 78 65 67 79 84 80 88 81 78 75 73 80 59 63 63 67 82 76 77 69 68 62 61 61 59 61 54 53 58 58 58 55 53 53 55 59 53 41 32 23 22
49 63 73 68 73 73 71 74 85 83 79 77 79 81 79 79 74 72 80 76 84 87 80 63 62 64 65 65 63 54 56 56 59 55 54 58 60 60 51 48 46 41 30
54 60 70 82 79 74 70 74 92 90 84 80 84 86 94 96 78 80 81 81 87 88 68 61 59 55 57 56 65 59 58 58 62 58 60 60 61 56 52 52 46 36 28
55 67 85 82 78 76 77 73 88 96 93 89 96 97 99 97 89 85 84 85 88 82 76 68 70 71 58 58 64 58 60 60 59 59 59 60 59 52 54 51 46 35 23
57 62 69 73 79 86 84 76 92 99 96 96 96 99 99 94 92 86 94 93 85 83 88 79 73 68 66 66 62 57 56 55 58 57 58 58 52 54 56 51 48 35 24
62 76 84 78 71 69 75 98 100 99 100 100 100 100 97 91 91 92 99 96 100 98 95 92 78 73 71 68 63 59 56 53 52 53 51 51 53 56 54 51 47 37 29
82 78 89 80 74 73 94 100 100 100 100 100 100 100 93 91 97 100 98 99 98 99 100 99 94 83 79 73 63 61 59 56 56 56 56 56 56 56 55 53 48 42 39
94 70 81 89 93 99 100 99 100 100 100 100 100 97 94 97 100 100 100 96 100 100 100 99 95 88 82 76 69 67 68 65 64 68 64 65 60 56 66 80 50 45 43
90 72 71 100 100 100 100 100 100 100 99 99 100 97 99 100 99 100 99 99 99 100 99 99 96 90 90 84 83 88 94 92 97 96 97 96 92 78 68 58 55 47 46
95 96 97 100 99 98 97 95 98 93 95 100 100 100 100 100 100 100 94 98 95 87 83 82 81 81 87 84 96 90 84 83 83 89 84 77 84 80 80 63 54 50 49
100 100 100 98 96 94 91 87 97 98 98 100 100 100 100 100 100 100 97 91 91 92 87 89 89 94 90 87 82 79 82 82 84 86 92 88 85 76 81 65 61 74 54
100 100 100 98 95 94 98 100 100 100 99 99 100 100 99 100 100 94 99 99 97 90 89 91 91 92 88 92 97 100 100 100 100 78 88 87 82 82 83 65 69 91 61
100 99 97 98 100 99 100 100 99 98 99 97 99 100 99 95 90 97 93 86 76 80 88 93 93 91 87 77 66 72 82 93 99 97 99 96 93 86 79 66 77 88 56
84 96 100 100 100 100 99 96 91 89 93 99 99 90 91 96 100 99 80 59 51 46 30 17 10 6 9 15 38 53 61 75 33 24 81 99 79 96 94 89 94 73 44
98 92 86 85 86 86 84 84 86 93 96 96 92 93 100 99 89 72 54 22 7 4 4 6 10 14 19 41 75 85 83 97 95 77 86 89 97 95 94 96 95 65 44
83 80 76 76 79 77 85 90 100 100 99 98 99 100 100 85 46 12 5 4 4 8 12 13 13 13 17 21 48 69 91 99 100 99 92 80 91 100 96 90 88 59 60

GFSMA_850_rhum_045.txt.gz
RH
35 40 51 59 57 46 42 44 41 40 35 29 26 28 31 34 37 40 43 43 52 75 87 92 98 81 56 46 40 37 41 46 46 43 41 38 32 24 23 37 54 47 56
37 38 46 60 62 60 54 48 46 40 36 30 27 28 32 37 40 44 47 44 45 45 79 85 98 86 55 47 43 43 47 52 46 37 32 30 22 19 17 17 17 17 20
41 46 48 57 59 62 65 65 46 42 36 32 32 33 36 40 42 44 51 48 47 43 44 47 63 77 52 43 47 42 44 45 37 35 32 29 23 21 19 16 14 13 13
49 44 51 56 49 63 67 70 59 47 45 45 40 35 36 41 42 44 54 53 50 43 44 44 44 42 41 46 43 41 42 40 42 34 30 26 25 29 21 15 11 8 8
53 52 62 63 59 64 70 71 69 62 51 48 46 46 44 43 43 43 54 58 56 50 46 46 46 46 43 43 44 46 47 46 44 40 36 33 38 34 35 20 11 9 9
46 59 59 58 60 66 74 73 73 72 69 62 60 52 50 48 47 45 46 58 61 59 56 51 47 47 46 47 48 50 49 48 49 46 44 45 41 42 36 25 14 11 11
61 72 65 55 53 68 66 74 76 77 73 68 61 58 54 51 50 50 45 49 59 61 57 58 53 49 49 50 50 51 51 58 61 54 52 46 46 42 34 32 28 18 14
47 55 59 59 62 70 75 77 77 75 72 70 63 61 55 53 52 51 48 45 56 61 61 59 60 56 53 52 53 55 51 54 58 54 53 47 47 44 42 42 38 27 20
53 58 63 70 81 77 77 77 79 78 78 78 72 63 57 56 54 51 49 51 59 61 62 63 64 63 58 56 55 57 55 53 54 55 55 50 48 48 49 48 46 42 28
48 53 69 78 84 81 77 80 82 82 82 82 76 69 62 66 60 61 58 54 60 63 64 67 66 64 61 59 58 58 60 55 53 56 57 54 50 51 51 52 50 48 39
49 53 72 68 73 76 83 82 81 87 88 89 82 74 70 69 76 60 62 63 66 65 72 70 69 70 65 61 60 60 62 62 55 55 59 60 56 54 55 56 53 51 43
50 50 65 66 68 77 74 72 75 75 83 93 86 80 76 74 78 69 69 75 71 70 74 79 80 80 67 64 63 63 66 67 66 58 57 62 59 55 58 59 55 53 48
48 46 58 61 46 73 77 82 79 78 73 75 84 81 77 78 82 75 84 84 81 84 82 80 79 76 61 61 61 61 61 62 71 64 60 63 62 57 59 60 54 54 49
44 44 46 47 49 65 89 76 92 83 79 79 96 86 84 86 90 90 98 92 93 90 88 83 81 80 71 74 76 67 61 63 65 69 67 64 62 59 61 61 53 54 50
53 51 68 75 63 84 74 91 92 68 83 93 98 91 90 94 97 99 99 94 94 96 90 86 85 80 80 75 72 68 66 63 61 57 59 60 59 60 60 61 53 55 54
60 63 80 89 84 83 94 94 80 76 80 99 99 97 92 100 100 100 90 95 93 100 100 98 98 97 92 86 80 77 71 69 62 61 58 55 56 58 58 59 53 56 57
76 79 91 95 76 90 96 100 96 89 94 99 100 97 100 100 99 100 93 93 98 100 100 99 99 96 97 97 88 85 81 75 68 66 64 61 60 59 59 58 58 64 60
81 81 91 97 57 81 90 100 99 96 99 99 100 100 100 100 99 97 95 100 100 100 100 100 99 97 95 97 89 83 79 81 82 82 84 80 76 72 71 81 94 83 95
88 93 72 75 80 69 76 92 100 100 100 100 100 100 100 100 98 98 100 100 100 100 99 98 98 92 87 81 78 78 77 71 72 75 78 80 87 88 96 97 99 98 90
90 69 86 59 74 73 80 100 100 100 100 100 100 99 98 100 99 100 100 100 99 95 95 91 83 84 84 81 83 87 89 74 65 68 67 63 63 60 62 70 85 87 99
97 87 84 87 84 98 99 100 100 100 100 97 91 95 99 100 100 100 99 99 100 91 86 91 89 89 86 76 77 80 87 84 68 75 77 78 86 80 73 73 76 72 89
100 100 99 100 100 99 99 100 96 86 89 100 98 100 100 100 99 100 99 100 98 95 95 88 81 76 65 64 62 54 36 24 18 20 63 38 70 67 72 82 82 74 92
100 100 100 100 100 98 97 91 90 99 100 98 99 99 100 100 100 100 95 95 95 96 87 70 61 50 24 9 10 13 32 46 42 35 71 57 47 43 35 59 47 44 78
100 98 98 98 98 96 93 99 99 100 99 100 100 100 100 100 96 94 99 87 84 69 56 28 8 7 11 14 18 22 30 38 31 42 80 97 54 58 62 80 72 97 95
99 100 100 99 99 96 99 100 100 100 100 100 100 100 95 93 98 97 77 72 48 15 6 5 6 8 7 7 11 14 19 89 81 28 72 100 80 88 88 81 62 85 98
99 92 100 100 100 100 100 100 99 94 98 99 97 96 96 99 100 98 61 18 6 5 5 8 7 7 9 11 14 21 36 50 53 49 27 68 76 98 99 87 86 89 98